Estación de Illapel
Ultimos registro cada 15 minutos 23
| N° | Estación | Fecha / Hora | Temperatura | Humedad | Lluvia | Velocidad | Dirección | Radiación | Presion |
| 23 | Illapel | 01-09-2026 05:30 | 10 | 45 | 0 | 0,4 | 149 | 0 | 999,2 |
| 22 | Illapel | 01-09-2026 05:15 | 9,9 | 46 | 0 | 0 | 152 | 0 | 999,1 |
| 21 | Illapel | 01-09-2026 05:00 | 9,6 | 46 | 0 | 0,4 | 153 | 0 | 999 |
| 20 | Illapel | 01-09-2026 04:45 | 9,6 | 46 | 0 | 0 | 158 | 0 | 999,3 |
| 19 | Illapel | 01-09-2026 04:30 | 9,8 | 46 | 0 | 0 | 156 | 0 | 999,2 |
| 18 | Illapel | 01-09-2026 04:15 | 10 | 46 | 0 | 0 | 163 | 0 | 999,3 |
| 17 | Illapel | 01-09-2026 04:00 | 9,8 | 46 | 0 | 0 | 173 | 0 | 999,3 |
| 16 | Illapel | 01-09-2026 03:45 | 9,8 | 46 | 0 | 0 | 163 | 0 | 999,4 |
| 15 | Illapel | 01-09-2026 03:30 | 9,8 | 46 | 0 | 0,4 | 163 | 0 | 999,6 |
| 14 | Illapel | 01-09-2026 03:15 | 10 | 46 | 0 | 0 | 152 | 0 | 999,8 |
| 13 | Illapel | 01-09-2026 03:00 | 10 | 46 | 0 | 0,9 | 168 | 0 | 1000 |
| 12 | Illapel | 01-09-2026 02:45 | 10 | 46 | 0 | 0,4 | 125 | 0 | 1000,3 |
| 11 | Illapel | 01-09-2026 02:30 | 10,1 | 46 | 0 | 0 | 131 | 0 | 1000,5 |
| 10 | Illapel | 01-09-2026 02:15 | 9,8 | 50 | 0 | 0,9 | 119 | 0 | 1000,6 |
| 9 | Illapel | 01-09-2026 02:00 | 9,9 | 50 | 0 | 0 | 234 | 0 | 1000,8 |
| 8 | Illapel | 01-09-2026 01:45 | 10,2 | 50 | 0 | 0 | 235 | 0 | 1001,1 |
| 7 | Illapel | 01-09-2026 01:30 | 10,2 | 51 | 0 | 0 | 235 | 0 | 1001,3 |
| 6 | Illapel | 01-09-2026 01:15 | 10,1 | 52 | 0 | 0 | 237 | 0 | 1001,4 |
| 5 | Illapel | 01-09-2026 01:00 | 10,1 | 55 | 0 | 0 | 239 | 0 | 1001,5 |
| 4 | Illapel | 01-09-2026 00:45 | 10,4 | 56 | 0 | 0 | 239 | 0 | 1001,7 |
| 3 | Illapel | 01-09-2026 00:30 | 10,7 | 56 | 0 | 0 | 239 | 0 | 1001,7 |
| 2 | Illapel | 01-09-2026 00:15 | 10,9 | 56 | 0 | 0 | 239 | 0 | 1001,5 |
| 1 | Illapel | 01-09-2026 00:00 | 10,9 | 57 | 0 | 0 | 239 | 0 | 1001,6 |